Location: Palombina Nuova
(43.6167°N, 13.4000°E)
Time: 17:35:11
(UTC+00:00)

FENGYUN 3A - Pass Details

Date: 17 February 2020
Orbit: 824 x 836 km, 98.4° (Epoch: 05 April)

Event Time Altitude Azimuth Distance (km) Brightness Sun altitude
Rises 04:49:53 0° 9° (N) 3,395 6.9 -13.9°
Reaches altitude 10° 04:52:17 10° 5° (N) 2,457 6.1 -13.4°
Maximum altitude 04:57:36 57° 289° (WNW) 986 3.7 -12.5°
Drops below altitude 10° 05:02:54 10° 212° (SSW) 2,442 5.9 -11.5°
Sets 05:05:16 0° 208° (SSW) 3,372 6.6 -11.1°
